Regional Weather Roundup
Issued by NWS

Home | Current Version | Previous Version | Graphics & Text | Print | Product List | Glossary On
Versions: 1 2 3 4 5 6 7 8 9 10 11 12 13 14 15 16 17 18 19 20 21 22 23 24 25 26 27 28 29 30 31 32 33 34 35 36 37 38 39 40 41 42 43 44 45 46 47 48 49 50
000
ASUS43 KDTX 232010
RWRMI
MICHIGAN HOURLY REGIONAL WEATHER ROUNDUP
NATIONAL WEATHER SERVICE DETROIT/PONTIAC MI
400 PM EDT THU MAR 23 2017

NOTE: "FAIR" INDICATES FEW OR NO CLOUDS BELOW 12,000 FEET WITH NO
SIGNIFICANT WEATHER AND/OR OBSTRUCTION TO VISIBILITY.

MIZ047>049-052>055-059>063-066>070-074>076-081>083-232100-
SOUTHEAST LOWER MICHIGAN

CITY           SKY/WX    TMP DP  RH WIND       PRES   REMARKS
ADRIAN         SUNNY     45  20  36 SE12      30.36F
ALMA           CLOUDY    42  14  32 S8G17     30.33F
ANN ARBOR      SUNNY     43  10  26 E13       30.36F
BAD AXE        CLOUDY    40  12  32 S14G20    30.36F WCI  32
CARO           CLOUDY    41  11  28 SE12      30.34F
DETROIT CITY   SUNNY     41  14  33 E13       30.41F
DETROIT        MOSUNNY   43   5  20 S14G20    30.39F
FLINT          CLOUDY    42  12  29 S17       30.33F
GROSSE ILE     SUNNY     40  13  33 SE8       30.39F WCI  35
HILLSDALE      CLOUDY    43  14  31 S13G18    30.31F
HOWELL         CLOUDY    43   4  19 SE13      30.33F

CITY           SKY/WX    TMP DP  RH WIND       PRES   REMARKS
JACKSON        PTSUNNY   43  12  28 SE12      30.33F
LAMBERTVILLE   SUNNY     42  23  47 E9G16     30.37F
LANSING        CLOUDY    47  11  23 S15       30.32F
LAPEER         FAIR      41  13  31 SE14      30.36F
MASON          CLOUDY    43  20  39 S13       30.32F
MONROE         SUNNY     38  22  53 SE7       30.38F WCI  32
MT. CLEMENS    PTSUNNY   39  12  33 SE15      30.40F WCI  30
PONTIAC        CLOUDY    42   7  23 SE16      30.34F
PORT HOPE        N/A     35  21  56 SE13      30.36F WCI  26
PORT HURON     SUNNY     41  10  28 S15       30.41F
TRI CITIES     CLOUDY    42  12  29 S16       30.34F
MIDLAND        CLOUDY    42  10  27 S9G16     30.32F
TROY           SUNNY     42   8  24 SE10G16   30.40F
SAGINAW HB     CLOUDY    43   3  19 SE14      30.33F
$$
MIZ043>046-050>051-056>058-064>065-071>073-077>080-232100-
SOUTHWEST LOWER MICHIGAN

CITY           SKY/WX    TMP DP  RH WIND       PRES   REMARKS
BATTLE CREEK   MOSUNNY   46   8  21 S16G23    30.30F
BENTON HARBOR  PTSUNNY   45  15  30 SE21      30.26F
BIG RAPIDS     CLOUDY    39  10  30 S14       30.28F WCI  31
COLDWATER      SUNNY     46  14  28 SE13G20   30.31F
FREMONT        CLOUDY    42  10  27 SE8       30.27F
HOLLAND        CLOUDY    48   9  20 S13       30.27F
GRAND RAPIDS   CLOUDY    46  10  23 SE10      30.28F
IONIA          CLOUDY    44  13  29 S14       30.29F
KALAMAZOO      PTSUNNY   46   7  20 S14       30.29F
LUDINGTON      CLOUDY    41  15  34 SE8       30.26F
MARSHALL       CLOUDY    47   8  20 SE12G17   30.30F
MOUNT PLEASANT CLOUDY    41  13  32 SE10      30.31F
MUSKEGON       CLOUDY    45   9  23 S10       30.27F
SOUTH HAVEN    MOSUNNY   45  10  24 S15G21    30.27F
$$
MIZ016>042-232100-
NORTHERN LOWER MICHIGAN

CITY           SKY/WX    TMP DP  RH WIND       PRES   REMARKS
ALPENA         CLOUDY    38  13  35 SE14      30.32F WCI  30
BEAVER ISLAND  CLOUDY    36  15  42 SE6       30.26F WCI  31
BELLAIRE       CLOUDY    40   9  28 SE14G20   30.28F WCI  32
CADILLAC       CLOUDY    38   7  27 S14       30.24F WCI  30
CHARLEVOIX     CLOUDY    40   8  26 S9        30.30F WCI  34
FRANKFORT      CLOUDY    40   6  24 S8        30.25F WCI  35
GAYLORD        CLOUDY    39   9  29 S13G21    30.25F WCI  31
GRAYLING       CLOUDY    39  10  30 S9G17     30.28F WCI  33
HARBOR SPRINGS CLOUDY    38   9  29 S5        30.27F WCI  35
HOUGHTON LAKE  CLOUDY    41  13  31 S13       30.28F
MANISTEE       CLOUDY    40   9  28 S9G16     30.27F WCI  34
OSCODA         CLOUDY    39  12  33 S12G18    30.34F WCI  32
PELLSTON       CLOUDY    39   6  25 S10       30.28F WCI  32
ROGERS CITY    CLOUDY    39  10  30 S10       30.31F WCI  32
TRAVERSE CITY  CLOUDY    42   5  21 VRB7G17   30.25F
$$
MIZ007>008-015-232100-
EASTERN UPPER MICHIGAN

CITY           SKY/WX    TMP DP  RH WIND       PRES   REMARKS
KINROSS        CLOUDY    34  19  54 SE12      30.28F WCI  25
MACKINAC ISLAN CLOUDY    37  13  37 SE6       30.27F WCI  32
NEWBERRY       CLOUDY    33  18  54 S17       30.24F WCI  22
S. S. MARIE    CLOUDY    36  17  46 S8        30.28F WCI  30
MUNISING         N/A     35  25  66 S20G31    30.17F WCI  24
$$
MIZ004>006-011>014-085-232100-
CENTRAL UPPER MICHIGAN

CITY           SKY/WX    TMP DP  RH WIND       PRES   REMARKS
MANISTIQUE     CLOUDY    34  23  64 S12       30.24F WCI  25
ESCANABA       CLOUDY    34  27  75 S10G18    30.22F WCI  26
MENOMINEE        N/A    N/A N/A N/A MISG        N/A
SAWYER-GWINN   CLOUDY    32  23  69 S25G32    30.14F WCI  19
$$
MIZ001>003-009>011-084-232100-
WESTERN UPPER MICHIGAN

CITY           SKY/WX    TMP DP  RH WIND       PRES   REMARKS
IRON MOUNTAIN  CLOUDY    35  22  58 S15       30.12F WCI  25
HOUGHTON       CLOUDY    34  20  56 S16G23    30.05F WCI  24
COPPER HARBOR    N/A     34  25  69 SW17G32   30.05F WCI  23
IRONWOOD       CLOUDY    37  20  50 S16G22    30.00F WCI  28
$$

ABBREVIATIONS USED IN REMARKS
   TC - TEMPERATURE IN CELSIUS
  WCI - WIND CHILL INDEX
   HX - HEAT INDEX
  VSB - VISIBILITY





USA.gov is the U.S. government's official web portal to all federal, state and local government web resources and services.